Regional Weather Roundup
Issued by NWS Cleveland, OH

Home | Current Version | Previous Version | Graphics & Text | Print | Product List | Glossary On
Versions: 1 2 3 4 5 6 7 8 9 10 11 12 13 14 15 16 17 18 19 20 21 22 23 24 25 26 27 28 29 30 31 32 33 34 35 36 37 38 39 40 41 42 43 44 45 46 47 48 49 50
000
ASUS41 KCLE 080310
RWRCLE
OHIO REGIONAL WEATHER ROUNDUP
NATIONAL WEATHER SERVICE CLEVELAND, OH
1000 PM EST WED DEC 07 2016

NOTE: "FAIR" INDICATES FEW OR NO CLOUDS BELOW 12,000 FEET WITH NO
SIGNIFICANT WEATHER AND/OR OBSTRUCTIONS TO VISIBILITY.

OHZ001>008-015>018-024>027-034-035-043-044-080400-
   NORTHWEST OHIO

CITY           SKY/WX    TMP DP  RH WIND       PRES   REMARKS
DEFIANCE       PTCLDY    31  22  69 W8        30.10R WCI  23
FINDLAY        CLOUDY    31  23  72 W16       30.08R WCI  20
TOLEDO EXPRESS CLEAR     29  24  82 W10       30.06S WCI  20
TOLEDO EXEC    PTCLDY    31  24  75 W10       30.07S WCI  22
LIMA           CLOUDY    30  25  81 W15       30.10R WCI  19
$$

OHZ009>014-019>023-028>033-038-089-080400-
   NORTHEAST OHIO

CITY           SKY/WX    TMP DP  RH WIND       PRES   REMARKS
CLE-HOPKINS    CLOUDY    35  23  61 W15       30.07S WCI  25
CLE-LAKEFRONT  CLOUDY    36  25  64 SW15      30.04F
CUY CO. ARPT   MOCLDY    36  27  69 W9        30.04S
LORAIN-ELYRIA  CLOUDY    32  23  69 W12       30.05F WCI  23
ASHTABULA      CLOUDY    33  22  63 SW7       30.03S WCI  27
AKRON-CANTON   CLOUDY    34  23  64 SW9       30.04F WCI  27
WOOSTER        CLOUDY    32  23  69 SW9       30.05S WCI  24
MANSFIELD      CLOUDY    32  23  69 SW13      30.04F WCI  22
YOUNGSTOWN     CLOUDY    33  23  66 SW9       30.02F WCI  25
$$

OHZ042-051>053-060>062-070>072-077>081-080400-
  SOUTHWEST OHIO

CITY           SKY/WX    TMP DP  RH WIND       PRES   REMARKS
CINC-COVINGTON CLOUDY    34  24  67 W8        30.14F WCI  27
CINC-LUNKEN    CLOUDY    37  24  59 W9        30.18S
HAMILTON       CLOUDY    35  26  69 W7        30.17S WCI  29
DAYTON         CLOUDY    32  24  72 W13       30.13R WCI  22
WRIGHT-PAT AFB CLOUDY    33  24  69 W6        30.13R WCI  28
DAYTON GENERAL CLOUDY    34  23  64 W9        30.13S WCI  27
WILMINGTON     CLOUDY    33  24  69 W8        30.13S WCI  26
$$

OHZ036-037-039>041-045>050-054>059-063>069-073>076-082>088-080400-
  CENTRAL AND SOUTHEAST OHIO

CITY           SKY/WX    TMP DP  RH WIND       PRES   REMARKS
COLUMBUS       CLOUDY    34  25  69 W10       30.12R WCI  26
OSU AIRPORT    CLOUDY    34  25  69 SW10      30.11R WCI  26
BOLTON FIELD   CLOUDY    33  25  73 W7        30.12R WCI  27
RICKENBACK AFB   N/A     32  26  77 W7        30.13R WCI  26
NEWARK         CLOUDY    33  25  72 SW5       30.10R WCI  29
MARION         CLOUDY    33  24  69 W9        30.09S WCI  25
LANCASTER      CLOUDY    35  24  64 VRB3      30.12R
ZANESVILLE     CLOUDY    35  24  64 W6        30.10R
NEW PHILLY     MOCLDY    34  24  67 SW5       30.08  WCI  30
$$



USA.gov is the U.S. government's official web portal to all federal, state and local government web resources and services.